This is the latest recevied weather packets stored in our database for station/object IK3ZGB. If no packets are shown the sender has not sent any weather packets the latest 10 day(s).
| Time | Temp. | Humidity | Pressure | Rain* | Wind** | Luminosity | Snow |
|---|---|---|---|---|---|---|---|
| 1777868924 | 16.11° C | 69% | 1018.2 hPa | - | - | - | - |
| 1777868324 | 15.56° C | 70% | 1018.1 hPa | - | - | - | - |
| 1777867724 | 15.56° C | 69% | 1018.1 hPa | - | - | - | - |
| 1777867126 | 15.56° C | 69% | 1018.1 hPa | - | - | - | - |
| 1777866524 | 15° C | 70% | 1018.1 hPa | - | - | - | - |
| 1777865925 | 15° C | 70% | 1018.1 hPa | - | - | - | - |
| 1777865325 | 15° C | 69% | 1017.9 hPa | - | - | - | - |
| 1777864725 | 15.56° C | 69% | 1018 hPa | - | - | - | - |
| 1777864124 | 15.56° C | 68% | 1018.1 hPa | - | - | - | - |
| 1777863524 | 16.11° C | 68% | 1018 hPa | - | - | - | - |
| 1777862924 | 16.11° C | 68% | 1018.2 hPa | - | - | - | - |
| 1777862326 | 16.11° C | 68% | 1018.3 hPa | - | - | - | - |
| 1777861725 | 16.11° C | 67% | 1018.3 hPa | - | - | - | - |
| 1777861125 | 16.11° C | 67% | 1018.2 hPa | - | - | - | - |
| 1777860524 | 16.67° C | 66% | 1018.2 hPa | - | - | - | - |
| 1777859925 | 16.67° C | 66% | 1018.2 hPa | - | - | - | - |
| 1777859324 | 16.67° C | 66% | 1017.7 hPa | - | - | - | - |
| 1777858725 | 16.11° C | 66% | 1018.1 hPa | - | - | - | - |
| 1777858125 | 16.11° C | 66% | 1018 hPa | - | - | - | - |
| 1777857524 | 16.67° C | 65% | 1018.1 hPa | - | - | - | - |
| 1777856924 | 16.67° C | 65% | 1018.1 hPa | - | - | - | - |
| 1777856325 | 16.67° C | 66% | 1018.2 hPa | - | - | - | - |
| 1777855726 | 16.11° C | 68% | 1017.9 hPa | - | - | - | - |
| 1777855124 | 16.11° C | 68% | 1018.1 hPa | - | - | - | - |
| 1777854524 | 16.11° C | 68% | 1018.3 hPa | - | - | - | - |
* Rain since midnight (hover to see other rain measurements)
** Current wind speed in m/s (hover to see current wind gust speed)